Overview Statistics Trail Chart Weather Telemetry Raw packets
 

This is the latest recevied weather packets stored in our database for station/object VE6HFD-WX. If no packets are shown the sender has not sent any weather packets the latest 10 day(s).

<< 74 75 76 77 78 79 80 >>
Time Temp. Humidity Pressure Rain* Wind** Luminosity Snow
1777489240 11.67° C 33% 1022.4 hPa 0 mm - - -
1777488910 11.67° C 34% 1022.4 hPa 0 mm - - -
1777488610 11.67° C 35% 1022.5 hPa 0 mm - - -
1777488280 12.22° C 33% 1022.5 hPa 0 mm - - -
1777487950 12.22° C 34% 1022.5 hPa 0 mm - - -
1777487650 11.67° C 33% 1022.5 hPa 0 mm - - -
1777487320 11.67° C 35% 1022.5 hPa 0 mm - - -
1777486990 11.67° C 36% 1022.6 hPa 0 mm - - -
1777486660 11.67° C 35% 1022.6 hPa 0 mm - - -
1777486360 11.67° C 34% 1022.6 hPa 0 mm - - -
1777486060 12.78° C 33% 1022.6 hPa 0 mm - - -
1777485760 12.22° C 34% 1022.7 hPa 0 mm - - -
1777485430 11.67° C 35% 1022.6 hPa 0 mm - - -
1777485130 11.11° C 35% 1022.6 hPa 0 mm - - -
1777484830 11.67° C 35% 1022.7 hPa 0 mm - - -
1777484500 11.11° C 35% 1022.7 hPa 0 mm - - -
1777484170 11.67° C 35% 1022.8 hPa 0 mm - - -
1777483870 11.11° C 35% 1022.8 hPa 0 mm - - -
1777483570 11.67° C 35% 1022.7 hPa 0 mm - - -
1777483270 11.11° C 36% 1022.7 hPa 0 mm - - -
1777482940 10.56° C 37% 1022.7 hPa 0 mm - - -
1777482610 10.56° C 37% 1022.7 hPa 0 mm - - -
1777482280 10° C 40% 1022.7 hPa 0 mm - - -
1777481950 10° C 41% 1022.6 hPa 0 mm - - -
1777481650 10° C 41% 1022.7 hPa 0 mm - - -

* Rain latest hour (hover to see other rain measurements)
** Current wind speed in m/s (hover to see current wind gust speed)